Time,TemperatureF,DewpointF,PressureIn,WindDirection,WindDirectionDegrees,WindSpeedMPH,WindSpeedGustMPH,Humidity,HourlyPrecipIn,Conditions,Clouds,dailyrainin,SoftwareType,DateUTC
2015-03-27 00:00:00,56.2,44.6,29.56,NW,313,2.2,2.2,65,0.00,,,0.00,VWS V15.00,2015-03-27 04:00:00,
2015-03-27 00:05:00,56.0,44.8,29.56,NW,315,0.0,0.0,66,0.00,,,0.00,VWS V15.00,2015-03-27 04:05:00,
2015-03-27 00:10:00,55.7,44.5,29.56,WNW,302,3.1,3.1,66,0.00,,,0.00,VWS V15.00,2015-03-27 04:10:00,
2015-03-27 00:15:00,55.5,44.7,29.56,NNW,342,5.4,5.4,67,0.00,,,0.00,VWS V15.00,2015-03-27 04:15:00,
2015-03-27 00:20:00,55.1,44.4,29.56,NNW,342,4.0,4.0,67,0.00,,,0.00,VWS V15.00,2015-03-27 04:20:00,
2015-03-27 00:25:00,55.0,44.6,29.56,NNW,342,3.1,3.1,68,0.00,,,0.00,VWS V15.00,2015-03-27 04:25:00,
2015-03-27 00:30:00,54.8,44.4,29.56,North,354,2.2,3.6,68,0.00,,,0.00,VWS V15.00,2015-03-27 04:30:00,
2015-03-27 00:35:00,54.6,44.7,29.56,NNW,328,0.0,0.0,69,0.00,,,0.00,VWS V15.00,2015-03-27 04:35:00,
2015-03-27 00:40:00,54.4,44.8,29.56,NNW,328,0.0,0.0,70,0.00,,,0.00,VWS V15.00,2015-03-27 04:40:00,
2015-03-27 00:45:00,54.1,44.1,29.56,NNW,328,0.0,0.0,69,0.00,,,0.00,VWS V15.00,2015-03-27 04:45:00,
2015-03-27 00:50:00,53.9,44.3,29.56,NNW,328,3.6,3.6,70,0.00,,,0.00,VWS V15.00,2015-03-27 04:50:00,
2015-03-27 00:55:00,53.5,44.0,29.56,NW,326,0.0,0.0,70,0.00,,,0.00,VWS V15.00,2015-03-27 04:55:00,
2015-03-27 01:00:00,53.3,43.8,29.56,NW,313,2.7,4.0,70,0.00,,,0.00,VWS V15.00,2015-03-27 05:00:00,
2015-03-27 01:06:00,53.0,43.5,29.56,NW,317,4.0,4.0,70,0.00,,,0.00,VWS V15.00,2015-03-27 05:06:00,
2015-03-27 01:11:00,52.8,43.3,29.56,NNW,344,3.1,3.1,70,0.00,,,0.00,VWS V15.00,2015-03-27 05:11:00,
2015-03-27 01:16:00,52.6,43.1,29.56,NNW,327,3.6,3.6,70,0.00,,,0.00,VWS V15.00,2015-03-27 05:16:00,
2015-03-27 01:21:00,52.1,42.2,29.56,NW,325,4.9,4.9,69,0.00,,,0.00,VWS V15.00,2015-03-27 05:21:00,
2015-03-27 01:26:00,51.7,41.5,29.56,North,349,7.2,7.2,68,0.00,,,0.00,VWS V15.00,2015-03-27 05:26:00,
2015-03-27 01:31:00,51.4,41.2,29.56,NNW,337,8.1,8.1,68,0.00,,,0.00,VWS V15.00,2015-03-27 05:31:00,
2015-03-27 01:36:00,51.0,40.8,29.56,NNW,336,5.4,5.4,68,0.00,,,0.00,VWS V15.00,2015-03-27 05:36:00,
2015-03-27 01:41:00,50.5,40.3,29.56,NNW,344,3.1,5.4,68,0.00,,,0.00,VWS V15.00,2015-03-27 05:41:00,
2015-03-27 01:46:00,50.3,40.1,29.56,NW,316,4.9,4.9,68,0.00,,,0.00,VWS V15.00,2015-03-27 05:46:00,
2015-03-27 01:51:00,50.1,40.3,29.56,NNW,339,0.0,0.0,69,0.00,,,0.00,VWS V15.00,2015-03-27 05:51:00,
2015-03-27 01:56:00,49.7,40.4,29.56,WNW,295,3.6,3.6,70,0.04,,,0.04,VWS V15.00,2015-03-27 05:56:00,
2015-03-27 02:01:00,49.7,40.4,29.56,NNW,332,0.0,2.2,70,0.04,,,0.04,VWS V15.00,2015-03-27 06:01:00,
2015-03-27 02:06:00,49.6,40.6,29.56,North,3,3.1,3.1,71,0.04,,,0.04,VWS V15.00,2015-03-27 06:06:00,
2015-03-27 02:11:00,49.4,40.4,29.56,NNW,333,0.0,0.0,71,0.08,,,0.08,VWS V15.00,2015-03-27 06:11:00,
2015-03-27 02:16:00,49.0,40.4,29.56,NNW,329,4.0,4.0,72,0.08,,,0.08,VWS V15.00,2015-03-27 06:16:00,
2015-03-27 02:21:00,48.7,40.0,29.56,NNW,337,0.0,0.0,72,0.08,,,0.08,VWS V15.00,2015-03-27 06:21:00,
2015-03-27 02:26:00,48.5,40.2,29.56,NW,309,2.7,2.7,73,0.08,,,0.08,VWS V15.00,2015-03-27 06:26:00,
2015-03-27 02:31:00,48.1,39.9,29.56,NNW,330,5.4,5.4,73,0.08,,,0.08,VWS V15.00,2015-03-27 06:31:00,
2015-03-27 02:36:00,47.9,39.7,29.59,NNW,347,2.7,4.0,73,0.12,,,0.12,VWS V15.00,2015-03-27 06:36:00,
2015-03-27 02:41:00,47.8,39.9,29.59,NNW,327,4.9,4.9,74,0.12,,,0.12,VWS V15.00,2015-03-27 06:41:00,
2015-03-27 02:46:00,47.4,39.5,29.59,WNW,297,5.4,5.4,74,0.12,,,0.12,VWS V15.00,2015-03-27 06:46:00,
2015-03-27 02:51:00,47.2,39.4,29.59,WNW,298,3.6,3.6,74,0.12,,,0.12,VWS V15.00,2015-03-27 06:51:00,
2015-03-27 02:56:00,47.0,39.5,29.59,NW,307,0.0,0.0,75,0.08,,,0.12,VWS V15.00,2015-03-27 06:56:00,
2015-03-27 03:01:00,46.9,39.4,29.62,NNW,328,0.0,0.0,75,0.08,,,0.12,VWS V15.00,2015-03-27 07:01:00,
2015-03-27 03:06:00,46.9,39.4,29.62,North,350,4.0,4.0,75,0.08,,,0.12,VWS V15.00,2015-03-27 07:06:00,
2015-03-27 03:11:00,46.7,39.2,29.62,NNW,335,0.0,0.0,75,0.12,,,0.20,VWS V15.00,2015-03-27 07:11:00,
2015-03-27 03:16:00,46.5,39.4,29.62,NNW,329,0.0,0.0,76,0.12,,,0.20,VWS V15.00,2015-03-27 07:16:00,
2015-03-27 03:21:00,46.7,39.5,29.62,NNW,329,0.0,0.0,76,0.16,,,0.24,VWS V15.00,2015-03-27 07:21:00,
2015-03-27 03:26:00,46.3,39.2,29.62,NW,323,2.7,2.7,76,0.16,,,0.24,VWS V15.00,2015-03-27 07:26:00,
2015-03-27 03:32:00,46.3,39.2,29.62,NW,306,5.4,5.4,76,0.16,,,0.24,VWS V15.00,2015-03-27 07:32:00,
2015-03-27 03:37:00,46.0,39.2,29.62,NNW,346,3.1,4.0,77,0.12,,,0.24,VWS V15.00,2015-03-27 07:37:00,
2015-03-27 03:42:00,46.0,39.2,29.62,NNW,334,5.8,5.8,77,0.12,,,0.24,VWS V15.00,2015-03-27 07:42:00,
2015-03-27 03:47:00,45.8,39.0,29.62,North,3,0.0,0.0,77,0.12,,,0.24,VWS V15.00,2015-03-27 07:47:00,
2015-03-27 03:52:00,45.8,39.0,29.62,NNW,344,0.0,0.0,77,0.12,,,0.24,VWS V15.00,2015-03-27 07:52:00,
2015-03-27 03:57:00,45.6,39.2,29.62,NNW,337,8.3,8.3,78,0.12,,,0.24,VWS V15.00,2015-03-27 07:57:00,
2015-03-27 04:02:00,45.2,38.8,29.62,NW,326,8.7,8.7,78,0.12,,,0.24,VWS V15.00,2015-03-27 08:02:00,
2015-03-27 04:07:00,45.1,38.6,29.62,WNW,298,4.0,4.0,78,0.12,,,0.24,VWS V15.00,2015-03-27 08:07:00,
2015-03-27 04:12:00,44.9,38.5,29.62,North,9,2.7,5.8,78,0.04,,,0.24,VWS V15.00,2015-03-27 08:12:00,
2015-03-27 04:17:00,44.7,38.3,29.59,WNW,299,4.9,4.9,78,0.04,,,0.24,VWS V15.00,2015-03-27 08:17:00,
2015-03-27 04:22:00,44.5,38.1,29.59,North,1,4.5,4.5,78,0.00,,,0.24,VWS V15.00,2015-03-27 08:22:00,
2015-03-27 04:27:00,44.3,37.9,29.59,NNW,338,5.4,5.4,78,0.00,,,0.24,VWS V15.00,2015-03-27 08:27:00,
2015-03-27 04:32:00,44.3,37.9,29.59,North,350,4.9,6.3,78,0.00,,,0.24,VWS V15.00,2015-03-27 08:32:00,
2015-03-27 04:37:00,44.3,37.9,29.59,NNW,332,4.9,4.9,78,0.00,,,0.24,VWS V15.00,2015-03-27 08:37:00,
2015-03-27 04:42:00,44.2,37.8,29.59,NNW,337,8.7,8.7,78,0.00,,,0.24,VWS V15.00,2015-03-27 08:42:00,
2015-03-27 04:47:00,44.2,37.8,29.62,NNW,332,4.9,4.9,78,0.00,,,0.24,VWS V15.00,2015-03-27 08:47:00,
2015-03-27 04:52:00,44.0,37.2,29.62,NNW,331,4.9,4.9,77,0.00,,,0.24,VWS V15.00,2015-03-27 08:52:00,
2015-03-27 04:58:00,43.8,37.1,29.62,NNW,328,5.8,11.9,77,0.00,,,0.24,VWS V15.00,2015-03-27 08:58:00,
2015-03-27 05:03:00,43.6,36.9,29.59,North,5,8.1,8.1,77,0.00,,,0.24,VWS V15.00,2015-03-27 09:03:00,
2015-03-27 05:08:00,43.3,36.2,29.59,NNW,340,8.3,8.3,76,0.00,,,0.24,VWS V15.00,2015-03-27 09:08:00,
2015-03-27 05:13:00,43.1,35.4,29.59,North,350,10.5,10.5,74,0.00,,,0.24,VWS V15.00,2015-03-27 09:13:00,
2015-03-27 05:18:00,43.1,35.0,29.62,NW,322,10.1,10.1,73,0.00,,,0.24,VWS V15.00,2015-03-27 09:18:00,
2015-03-27 05:23:00,42.9,34.8,29.62,NW,325,5.8,5.8,73,0.00,,,0.24,VWS V15.00,2015-03-27 09:23:00,
2015-03-27 05:28:00,42.9,34.8,29.62,North,1,5.8,5.8,73,0.00,,,0.24,VWS V15.00,2015-03-27 09:28:00,
2015-03-27 05:33:00,42.7,35.0,29.62,NNW,342,7.6,7.6,74,0.00,,,0.24,VWS V15.00,2015-03-27 09:33:00,
2015-03-27 05:38:00,42.7,35.0,29.62,NNW,335,8.7,8.7,74,0.00,,,0.24,VWS V15.00,2015-03-27 09:38:00,
2015-03-27 05:43:00,42.7,35.0,29.62,North,354,3.1,3.1,74,0.00,,,0.24,VWS V15.00,2015-03-27 09:43:00,
2015-03-27 05:48:00,42.7,35.0,29.62,North,354,3.1,3.1,74,0.00,,,0.24,VWS V15.00,2015-03-27 09:48:00,
2015-03-27 05:53:00,42.5,34.8,29.62,NNW,338,4.0,4.0,74,0.00,,,0.24,VWS V15.00,2015-03-27 09:53:00,
2015-03-27 05:58:00,42.5,34.8,29.62,NW,323,3.6,3.6,74,0.00,,,0.24,VWS V15.00,2015-03-27 09:58:00,
2015-03-27 06:03:00,42.2,34.2,29.65,NNE,12,4.9,4.9,73,0.00,,,0.24,VWS V15.00,2015-03-27 10:03:00,
2015-03-27 06:08:00,41.8,32.8,29.65,NNW,331,8.3,8.3,70,0.00,,,0.24,VWS V15.00,2015-03-27 10:08:00,
2015-03-27 06:13:00,41.6,32.6,29.65,NNE,19,10.5,10.5,70,0.00,,,0.24,VWS V15.00,2015-03-27 10:13:00,
2015-03-27 06:18:00,41.5,32.1,29.65,NNW,339,6.7,6.7,69,0.00,,,0.24,VWS V15.00,2015-03-27 10:18:00,
2015-03-27 06:23:00,41.3,31.9,29.65,NNW,345,8.7,8.7,69,0.00,,,0.24,VWS V15.00,2015-03-27 10:23:00,